| time (UTC) | temp C | wind direction | speed KPH | gust KPH | rain 1hr cm | rain 24hr cm | rain mn cm | humidity % | barometer mb |
| 20260510202017 | 8 | 325 | 9.7 | 16.1 | 0.00 | 0.00 | 0.00 | 79 | 1016.4 |
| 20260510201532 | 9 | 329 | 9.7 | 16.1 | 0.00 | 0.00 | 0.00 | 79 | 1016.4 |
| 20260510201015 | 9 | 330 | 9.7 | 16.1 | 0.00 | 0.00 | 0.00 | 78 | 1016.4 |
| 20260510200518 | 9 | 331 | 6.4 | 14.5 | 0.00 | 0.00 | 0.00 | 78 | 1016.4 |
| 20260510200032 | 9 | 331 | 9.7 | 14.5 | 0.00 | 0.00 | 0.00 | 78 | 1016.4 |
| 20260510195516 | 9 | 321 | 8.0 | 14.5 | 0.00 | 0.00 | 0.00 | 77 | 1016.4 |
| 20260510195015 | 10 | 320 | 9.7 | 12.9 | 0.00 | 0.00 | 0.00 | 77 | 1016.4 |
| 20260510194534 | 10 | 344 | 6.4 | 14.5 | 0.00 | 0.00 | 0.00 | 77 | 1016.4 |
| 20260510194016 | 10 | 323 | 6.4 | 14.5 | 0.00 | 0.00 | 0.00 | 76 | 1016.3 |
| 20260510193516 | 10 | 321 | 6.4 | 12.9 | 0.00 | 0.00 | 0.00 | 75 | 1016.3 |
| 20260510193035 | 11 | 326 | 4.8 | 12.9 | 0.00 | 0.00 | 0.00 | 74 | 1016.2 |
| 20260510192516 | 11 | 321 | 6.4 | 12.9 | 0.00 | 0.00 | 0.00 | 73 | 1016.3 |
| 20260510192015 | 11 | 331 | 3.2 | 4.8 | 0.00 | 0.00 | 0.00 | 72 | 1016.2 |
| 20260510191539 | 11 | 314 | 0.0 | 1.6 | 0.00 | 0.00 | 0.00 | 75 | 1016.4 |
| 20260510191016 | 11 | 310 | 0.0 | 1.6 | 0.00 | 0.00 | 0.00 | 79 | 1016.3 |
| 20260510190515 | 11 | 0 | 0.0 | 0.0 | 0.00 | 0.00 | 0.00 | 79 | 1016.3 |
| 20260510190045 | 12 | 0 | 0.0 | 0.0 | 0.00 | 0.00 | 0.00 | 80 | 1016.3 |
| 20260510185517 | 12 | 0 | 0.0 | 1.6 | 0.00 | 0.00 | 0.00 | 80 | 1016.2 |
| 20260510185015 | 11 | 0 | 0.0 | 1.6 | 0.00 | 0.00 | 0.00 | 80 | 1016.2 |
| 20260510184534 | 11 | 309 | 0.0 | 3.2 | 0.00 | 0.00 | 0.00 | 79 | 1016.3 |
| 20260510184016 | 11 | 0 | 0.0 | 3.2 | 0.00 | 0.00 | 0.00 | 78 | 1016.3 |
| 20260510183518 | 12 | 0 | 0.0 | 3.2 | 0.00 | 0.00 | 0.00 | 78 | 1016.3 |
| 20260510183036 | 12 | 0 | 0.0 | 1.6 | 0.00 | 0.00 | 0.00 | 78 | 1016.4 |
| 20260510182519 | 11 | 0 | 0.0 | 9.7 | 0.00 | 0.00 | 0.00 | 77 | 1016.2 |
| 20260510182018 | 11 | 0 | 1.6 | 9.7 | 0.00 | 0.00 | 0.00 | 77 | 1016.3 |
| 20260510181552 | 11 | 303 | 3.2 | 4.8 | 0.00 | 0.00 | 0.00 | 79 | 1016.3 |
| 20260510181016 | 11 | 304 | 0.0 | 4.8 | 0.00 | 0.00 | 0.00 | 79 | 1016.3 |
| 20260510180516 | 11 | 0 | 0.0 | 4.8 | 0.00 | 0.00 | 0.00 | 79 | 1016.4 |
| 20260510180043 | 11 | 305 | 1.6 | 4.8 | 0.00 | 0.00 | 0.00 | 78 | 1016.4 |
| 20260510175515 | 12 | 306 | 0.0 | 3.2 | 0.00 | 0.00 | 0.00 | 76 | 1016.4 |
| 20260510175015 | 12 | 307 | 0.0 | 8.0 | 0.00 | 0.00 | 0.00 | 75 | 1016.4 |
| 20260510174537 | 12 | 0 | 0.0 | 8.0 | 0.00 | 0.00 | 0.00 | 76 | 1016.4 |
| 20260510174017 | 13 | 360 | 4.8 | 8.0 | 0.00 | 0.00 | 0.00 | 73 | 1016.4 |
| 20260510173516 | 14 | 332 | 1.6 | 8.0 | 0.00 | 0.00 | 0.00 | 70 | 1016.3 |
| 20260510173037 | 14 | 0 | 0.0 | 6.4 | 0.00 | 0.00 | 0.00 | 63 | 1016.5 |
| 20260510172516 | 14 | 322 | 0.0 | 9.7 | 0.00 | 0.00 | 0.00 | 62 | 1016.5 |
| 20260510172020 | 13 | 316 | 3.2 | 9.7 | 0.00 | 0.00 | 0.00 | 64 | 1016.4 |
| 20260510171550 | 13 | 335 | 3.2 | 9.7 | 0.00 | 0.00 | 0.00 | 62 | 1016.4 |
| 20260510171016 | 13 | 285 | 1.6 | 4.8 | 0.00 | 0.00 | 0.00 | 72 | 1016.5 |
| 20260510170516 | 14 | 314 | 1.6 | 11.3 | 0.00 | 0.00 | 0.00 | 68 | 1016.6 |
| 20260510170035 | 15 | 318 | 0.0 | 11.3 | 0.00 | 0.00 | 0.00 | 60 | 1016.7 |
| 20260510165517 | 15 | 352 | 1.6 | 8.0 | 0.00 | 0.00 | 0.00 | 58 | 1016.7 |
| 20260510165022 | 16 | 289 | 1.6 | 9.7 | 0.00 | 0.00 | 0.00 | 61 | 1016.8 |
| 20260510164532 | 15 | 331 | 1.6 | 12.9 | 0.00 | 0.00 | 0.00 | 63 | 1016.8 |
| 20260510164015 | 15 | 293 | 3.2 | 16.1 | 0.00 | 0.00 | 0.00 | 63 | 1016.8 |
| 20260510163515 | 14 | 6 | 6.4 | 16.1 | 0.00 | 0.00 | 0.00 | 63 | 1016.8 |
| 20260510163032 | 13 | 352 | 6.4 | 14.5 | 0.00 | 0.00 | 0.00 | 62 | 1016.9 |
| 20260510162521 | 13 | 339 | 3.2 | 9.7 | 0.00 | 0.00 | 0.00 | 65 | 1017.0 |
| 20260510162015 | 13 | 318 | 0.0 | 3.2 | 0.00 | 0.00 | 0.00 | 68 | 1017.0 |
| 20260510161531 | 13 | 0 | 0.0 | 6.4 | 0.00 | 0.00 | 0.00 | 69 | 1016.9 |
| 20260510161016 | 13 | 325 | 0.0 | 6.4 | 0.00 | 0.00 | 0.00 | 70 | 1016.9 |
| 20260510160520 | 13 | 304 | 0.0 | 6.4 | 0.00 | 0.00 | 0.00 | 70 | 1017.0 |
| 20260510160042 | 13 | 327 | 0.0 | 6.4 | 0.00 | 0.00 | 0.00 | 69 | 1017.1 |
| 20260510155518 | 13 | 321 | 0.0 | 6.4 | 0.00 | 0.00 | 0.00 | 69 | 1017.1 |
| 20260510155015 | 13 | 311 | 0.0 | 6.4 | 0.00 | 0.00 | 0.00 | 68 | 1017.2 |
| 20260510154553 | 13 | 320 | 1.6 | 8.0 | 0.00 | 0.00 | 0.00 | 68 | 1017.2 |
| 20260510154015 | 13 | 317 | 1.6 | 11.3 | 0.00 | 0.00 | 0.00 | 70 | 1017.3 |
| 20260510153514 | 13 | 328 | 3.2 | 11.3 | 0.00 | 0.00 | 0.00 | 70 | 1017.3 |
| 20260510153045 | 13 | 0 | 1.6 | 11.3 | 0.00 | 0.00 | 0.00 | 70 | 1017.3 |
| 20260510152517 | 13 | 337 | 1.6 | 12.9 | 0.00 | 0.00 | 0.00 | 71 | 1017.3 |
| 20260510152019 | 13 | 333 | 4.8 | 12.9 | 0.00 | 0.00 | 0.00 | 70 | 1017.4 |
| 20260510151533 | 13 | 359 | 4.8 | 12.9 | 0.00 | 0.00 | 0.00 | 71 | 1017.5 |
| 20260510151015 | 12 | 333 | 1.6 | 12.9 | 0.00 | 0.00 | 0.00 | 72 | 1017.6 |
| 20260510150521 | 12 | 355 | 6.4 | 16.1 | 0.00 | 0.00 | 0.00 | 70 | 1017.6 |
| 20260510150034 | 12 | 344 | 6.4 | 16.1 | 0.00 | 0.00 | 0.00 | 72 | 1017.7 |
| 20260510145515 | 13 | 358 | 4.8 | 16.1 | 0.00 | 0.00 | 0.00 | 70 | 1017.6 |
| 20260510145015 | 12 | 13 | 3.2 | 12.9 | 0.00 | 0.00 | 0.00 | 71 | 1017.7 |
| 20260510144546 | 13 | 8 | 6.4 | 14.5 | 0.00 | 0.00 | 0.00 | 70 | 1017.8 |
| 20260510144015 | 13 | 349 | 4.8 | 14.5 | 0.00 | 0.00 | 0.00 | 72 | 1017.8 |
| 20260510143521 | 13 | 346 | 6.4 | 14.5 | 0.00 | 0.00 | 0.00 | 70 | 1017.9 |
| 20260510143033 | 13 | 7 | 3.2 | 14.5 | 0.00 | 0.00 | 0.00 | 70 | 1018.0 |
| 20260510142525 | 13 | 333 | 1.6 | 19.3 | 0.00 | 0.00 | 0.00 | 70 | 1018.0 |
| 20260510142017 | 13 | 323 | 6.4 | 19.3 | 0.00 | 0.00 | 0.00 | 71 | 1018.0 |
| 20260510141539 | 13 | 335 | 3.2 | 14.5 | 0.00 | 0.00 | 0.00 | 71 | 1018.1 |
| 20260510141016 | 13 | 338 | 3.2 | 14.5 | 0.00 | 0.00 | 0.00 | 71 | 1018.1 |
| 20260510140515 | 13 | 18 | 4.8 | 12.9 | 0.00 | 0.00 | 0.00 | 69 | 1018.1 |
| 20260510140036 | 13 | 317 | 3.2 | 9.7 | 0.00 | 0.00 | 0.00 | 71 | 1018.1 |
| 20260510135515 | 13 | 340 | 0.0 | 14.5 | 0.00 | 0.00 | 0.00 | 72 | 1018.1 |
| 20260510135016 | 13 | 359 | 4.8 | 14.5 | 0.00 | 0.00 | 0.00 | 71 | 1018.2 |
| 20260510134534 | 13 | 8 | 1.6 | 9.7 | 0.00 | 0.00 | 0.00 | 70 | 1018.3 |
| 20260510134019 | 13 | 323 | 0.0 | 12.9 | 0.00 | 0.00 | 0.00 | 73 | 1018.3 |
| 20260510133515 | 13 | 327 | 6.4 | 12.9 | 0.00 | 0.00 | 0.00 | 70 | 1018.3 |
| 20260510133034 | 13 | 39 | 1.6 | 16.1 | 0.00 | 0.00 | 0.00 | 72 | 1018.3 |
| 20260510132515 | 12 | 330 | 4.8 | 16.1 | 0.00 | 0.00 | 0.00 | 73 | 1018.3 |
| 20260510132018 | 13 | 16 | 8.0 | 16.1 | 0.00 | 0.00 | 0.00 | 71 | 1018.3 |
| 20260510131531 | 13 | 302 | 4.8 | 16.1 | 0.00 | 0.00 | 0.00 | 73 | 1018.3 |
| 20260510131015 | 13 | 309 | 6.4 | 16.1 | 0.00 | 0.00 | 0.00 | 71 | 1018.4 |
| 20260510130515 | 13 | 352 | 3.2 | 16.1 | 0.00 | 0.00 | 0.00 | 73 | 1018.4 |
| 20260510130032 | 13 | 24 | 4.8 | 16.1 | 0.00 | 0.00 | 0.00 | 73 | 1018.4 |
| 20260510125516 | 13 | 340 | 3.2 | 14.5 | 0.00 | 0.00 | 0.00 | 73 | 1018.4 |
| 20260510125016 | 13 | 335 | 4.8 | 14.5 | 0.00 | 0.00 | 0.00 | 73 | 1018.4 |
| 20260510124534 | 13 | 323 | 3.2 | 14.5 | 0.00 | 0.00 | 0.00 | 75 | 1018.4 |
| 20260510124018 | 13 | 308 | 8.0 | 20.9 | 0.00 | 0.00 | 0.00 | 73 | 1018.5 |
| 20260510123520 | 13 | 342 | 9.7 | 22.5 | 0.00 | 0.00 | 0.00 | 75 | 1018.4 |
| 20260510123034 | 13 | 321 | 4.8 | 22.5 | 0.00 | 0.00 | 0.00 | 74 | 1018.5 |
| 20260510122517 | 13 | 356 | 11.3 | 22.5 | 0.00 | 0.00 | 0.00 | 75 | 1018.5 |
| 20260510122015 | 13 | 2 | 8.0 | 22.5 | 0.00 | 0.00 | 0.00 | 74 | 1018.5 |
| 20260510121532 | 13 | 19 | 9.7 | 17.7 | 0.00 | 0.00 | 0.00 | 75 | 1018.5 |
| 20260510121016 | 13 | 359 | 8.0 | 17.7 | 0.00 | 0.00 | 0.00 | 75 | 1018.5 |
| 20260510120516 | 13 | 3 | 4.8 | 14.5 | 0.00 | 0.00 | 0.00 | 75 | 1018.6 |
| 20260510120032 | 12 | 348 | 6.4 | 14.5 | 0.00 | 0.00 | 0.00 | 76 | 1018.7 |
| 20260510115515 | 12 | 331 | 6.4 | 16.1 | 0.00 | 0.00 | 0.00 | 75 | 1018.8 |
| 20260510115015 | 12 | 343 | 4.8 | 16.1 | 0.00 | 0.00 | 0.00 | 76 | 1018.7 |
| 20260510114531 | 12 | 30 | 8.0 | 17.7 | 0.00 | 0.00 | 0.00 | 78 | 1018.8 |
| 20260510114014 | 12 | 348 | 8.0 | 17.7 | 0.00 | 0.00 | 0.00 | 76 | 1018.9 |
| 20260510113515 | 12 | 297 | 8.0 | 17.7 | 0.00 | 0.00 | 0.00 | 76 | 1018.9 |
| 20260510113030 | 12 | 323 | 6.4 | 16.1 | 0.00 | 0.00 | 0.00 | 77 | 1019.0 |
| 20260510112515 | 12 | 17 | 4.8 | 17.7 | 0.00 | 0.00 | 0.00 | 76 | 1019.1 |
| 20260510112015 | 12 | 5 | 9.7 | 17.7 | 0.00 | 0.00 | 0.00 | 77 | 1018.9 |
| 20260510111543 | 12 | 22 | 4.8 | 16.1 | 0.00 | 0.00 | 0.00 | 76 | 1019.0 |
| 20260510111018 | 12 | 310 | 6.4 | 16.1 | 0.00 | 0.00 | 0.00 | 75 | 1019.0 |
| 20260510110515 | 12 | 319 | 8.0 | 20.9 | 0.00 | 0.00 | 0.00 | 76 | 1019.1 |
| 20260510110035 | 12 | 30 | 11.3 | 20.9 | 0.00 | 0.00 | 0.00 | 76 | 1019.2 |
| 20260510105516 | 13 | 5 | 4.8 | 16.1 | 0.00 | 0.00 | 0.00 | 75 | 1019.1 |
| 20260510105016 | 13 | 321 | 6.4 | 16.1 | 0.00 | 0.00 | 0.00 | 75 | 1019.2 |
| 20260510104546 | 13 | 330 | 4.8 | 12.9 | 0.00 | 0.00 | 0.00 | 74 | 1019.3 |
| 20260510104016 | 13 | 6 | 4.8 | 24.1 | 0.00 | 0.00 | 0.00 | 77 | 1019.4 |
| 20260510103515 | 12 | 302 | 8.0 | 24.1 | 0.00 | 0.00 | 0.00 | 76 | 1019.4 |
| 20260510103031 | 12 | 354 | 8.0 | 22.5 | 0.00 | 0.00 | 0.00 | 76 | 1019.4 |
| 20260510102515 | 12 | 329 | 8.0 | 16.1 | 0.00 | 0.00 | 0.00 | 77 | 1019.4 |
| 20260510102019 | 12 | 335 | 8.0 | 16.1 | 0.00 | 0.00 | 0.00 | 75 | 1019.5 |
| 20260510101532 | 13 | 21 | 3.2 | 17.7 | 0.00 | 0.00 | 0.00 | 76 | 1019.3 |
| 20260510101018 | 12 | 350 | 4.8 | 17.7 | 0.00 | 0.00 | 0.00 | 78 | 1019.4 |
| 20260510100515 | 12 | 326 | 6.4 | 19.3 | 0.00 | 0.00 | 0.00 | 77 | 1019.4 |
| 20260510100032 | 12 | 21 | 8.0 | 19.3 | 0.00 | 0.00 | 0.00 | 77 | 1019.4 |
| 20260510095520 | 12 | 45 | 6.4 | 19.3 | 0.00 | 0.00 | 0.00 | 76 | 1019.4 |
| 20260510095020 | 12 | 125 | 3.2 | 19.3 | 0.00 | 0.00 | 0.00 | 78 | 1019.3 |
| 20260510094536 | 12 | 319 | 6.4 | 19.3 | 0.00 | 0.00 | 0.00 | 78 | 1019.4 |
| 20260510094016 | 12 | 318 | 8.0 | 19.3 | 0.00 | 0.00 | 0.00 | 77 | 1019.5 |
| 20260510093519 | 12 | 295 | 4.8 | 22.5 | 0.00 | 0.00 | 0.00 | 79 | 1019.6 |
| 20260510093035 | 12 | 293 | 9.7 | 22.5 | 0.00 | 0.00 | 0.00 | 80 | 1019.6 |
| 20260510092516 | 11 | 34 | 6.4 | 17.7 | 0.00 | 0.00 | 0.00 | 79 | 1019.7 |
| 20260510092015 | 11 | 5 | 8.0 | 19.3 | 0.00 | 0.00 | 0.00 | 80 | 1019.6 |
| 20260510091537 | 11 | 345 | 9.7 | 19.3 | 0.00 | 0.00 | 0.00 | 79 | 1019.7 |
| 20260510091015 | 11 | 25 | 8.0 | 17.7 | 0.00 | 0.00 | 0.00 | 79 | 1019.8 |
| 20260510090516 | 11 | 318 | 4.8 | 20.9 | 0.00 | 0.00 | 0.00 | 79 | 1019.9 |
| 20260510090032 | 11 | 60 | 6.4 | 25.7 | 0.00 | 0.00 | 0.00 | 80 | 1019.8 |
| 20260510085515 | 11 | 30 | 8.0 | 25.7 | 0.00 | 0.00 | 0.00 | 80 | 1019.8 |
| 20260510085015 | 11 | 328 | 4.8 | 24.1 | 0.00 | 0.00 | 0.00 | 79 | 1019.8 |
| 20260510084545 | 11 | 309 | 11.3 | 24.1 | 0.00 | 0.00 | 0.00 | 78 | 1019.7 |
| 20260510084015 | 11 | 3 | 6.4 | 17.7 | 0.00 | 0.00 | 0.00 | 80 | 1019.6 |
| 20260510083515 | 11 | 330 | 8.0 | 17.7 | 0.00 | 0.00 | 0.00 | 80 | 1019.6 |
| 20260510083039 | 11 | 50 | 8.0 | 17.7 | 0.00 | 0.00 | 0.00 | 80 | 1019.5 |
| 20260510082517 | 11 | 42 | 6.4 | 22.5 | 0.00 | 0.00 | 0.00 | 80 | 1019.6 |
| 20260510082015 | 11 | 319 | 9.7 | 22.5 | 0.00 | 0.00 | 0.00 | 79 | 1019.6 |
| 20260510081538 | 11 | 335 | 6.4 | 19.3 | 0.00 | 0.00 | 0.00 | 79 | 1019.7 |
| 20260510081016 | 11 | 304 | 4.8 | 19.3 | 0.00 | 0.00 | 0.00 | 80 | 1019.7 |
| 20260510080516 | 11 | 39 | 6.4 | 16.1 | 0.00 | 0.00 | 0.00 | 80 | 1019.5 |
| 20260510080032 | 11 | 346 | 6.4 | 16.1 | 0.00 | 0.00 | 0.00 | 80 | 1019.6 |
| 20260510075515 | 11 | 310 | 4.8 | 14.5 | 0.00 | 0.00 | 0.00 | 81 | 1019.5 |
| 20260510075019 | 10 | 328 | 3.2 | 14.5 | 0.00 | 0.00 | 0.00 | 81 | 1019.5 |
| 20260510074537 | 10 | 340 | 4.8 | 17.7 | 0.00 | 0.00 | 0.00 | 82 | 1019.6 |
| 20260510074015 | 10 | 30 | 6.4 | 17.7 | 0.00 | 0.00 | 0.00 | 82 | 1019.5 |
| 20260510073515 | 10 | 337 | 6.4 | 17.7 | 0.00 | 0.00 | 0.00 | 83 | 1019.5 |
| 20260510073046 | 9 | 326 | 8.0 | 17.7 | 0.00 | 0.00 | 0.00 | 83 | 1019.4 |
| 20260510072515 | 9 | 334 | 6.4 | 16.1 | 0.00 | 0.00 | 0.00 | 84 | 1019.4 |
| 20260510072016 | 9 | 349 | 4.8 | 16.1 | 0.00 | 0.00 | 0.00 | 84 | 1019.4 |
| 20260510071532 | 9 | 27 | 6.4 | 17.7 | 0.00 | 0.00 | 0.00 | 84 | 1019.4 |
| 20260510071015 | 9 | 18 | 4.8 | 17.7 | 0.00 | 0.00 | 0.00 | 84 | 1019.4 |
| 20260510070515 | 9 | 28 | 3.2 | 14.5 | 0.00 | 0.00 | 0.00 | 84 | 1019.4 |
| 20260510070035 | 9 | 13 | 4.8 | 14.5 | 0.00 | 0.00 | 0.00 | 84 | 1019.4 |
| 20260510065517 | 9 | 311 | 3.2 | 14.5 | 0.00 | 0.00 | 0.00 | 84 | 1019.3 |
| 20260510065018 | 9 | 316 | 1.6 | 12.9 | 0.00 | 0.00 | 0.00 | 84 | 1019.2 |
| 20260510064532 | 9 | 313 | 3.2 | 14.5 | 0.00 | 0.00 | 0.00 | 83 | 1019.1 |
| 20260510064018 | 9 | 336 | 3.2 | 14.5 | 0.00 | 0.00 | 0.00 | 83 | 1019.2 |
| 20260510063517 | 9 | 335 | 3.2 | 14.5 | 0.00 | 0.00 | 0.00 | 84 | 1019.1 |
| 20260510063035 | 9 | 318 | 3.2 | 14.5 | 0.00 | 0.00 | 0.00 | 83 | 1019.0 |
| 20260510062515 | 9 | 1 | 4.8 | 14.5 | 0.00 | 0.00 | 0.00 | 83 | 1019.1 |
| 20260510062015 | 9 | 322 | 4.8 | 14.5 | 0.00 | 0.00 | 0.00 | 83 | 1019.0 |
| 20260510061534 | 9 | 311 | 3.2 | 14.5 | 0.00 | 0.00 | 0.00 | 83 | 1019.0 |
| 20260510061017 | 9 | 299 | 4.8 | 16.1 | 0.00 | 0.00 | 0.00 | 84 | 1019.0 |
| 20260510060516 | 9 | 304 | 6.4 | 16.1 | 0.00 | 0.00 | 0.00 | 84 | 1019.1 |
| 20260510060039 | 8 | 309 | 4.8 | 16.1 | 0.00 | 0.00 | 0.00 | 84 | 1019.0 |
| 20260510055515 | 8 | 300 | 3.2 | 17.7 | 0.00 | 0.00 | 0.00 | 84 | 1018.9 |
| 20260510055015 | 8 | 309 | 4.8 | 17.7 | 0.00 | 0.00 | 0.00 | 84 | 1018.9 |
| 20260510054531 | 8 | 6 | 6.4 | 16.1 | 0.00 | 0.00 | 0.00 | 84 | 1019.0 |
| 20260510054015 | 8 | 14 | 6.4 | 16.1 | 0.00 | 0.00 | 0.00 | 84 | 1018.9 |
| 20260510053516 | 8 | 354 | 4.8 | 16.1 | 0.00 | 0.00 | 0.00 | 84 | 1018.8 |
| 20260510053032 | 8 | 21 | 4.8 | 14.5 | 0.00 | 0.00 | 0.00 | 84 | 1018.8 |
| 20260510052519 | 8 | 319 | 4.8 | 14.5 | 0.00 | 0.00 | 0.00 | 84 | 1018.8 |
| 20260510052017 | 8 | 7 | 3.2 | 14.5 | 0.00 | 0.00 | 0.00 | 85 | 1018.8 |
| 20260510051541 | 8 | 4 | 3.2 | 14.5 | 0.00 | 0.00 | 0.00 | 85 | 1018.8 |
| 20260510051015 | 8 | 333 | 4.8 | 11.3 | 0.00 | 0.00 | 0.00 | 85 | 1018.9 |
| 20260510050516 | 8 | 351 | 3.2 | 12.9 | 0.00 | 0.00 | 0.00 | 85 | 1018.8 |
| 20260510050036 | 8 | 25 | 4.8 | 12.9 | 0.00 | 0.00 | 0.00 | 86 | 1018.8 |
| 20260510045515 | 8 | 8 | 3.2 | 12.9 | 0.00 | 0.00 | 0.00 | 86 | 1018.8 |
| 20260510045016 | 8 | 339 | 6.4 | 12.9 | 0.00 | 0.00 | 0.00 | 86 | 1018.8 |
| 20260510044535 | 8 | 7 | 6.4 | 14.5 | 0.00 | 0.00 | 0.00 | 86 | 1018.8 |
| 20260510044015 | 8 | 331 | 6.4 | 14.5 | 0.00 | 0.00 | 0.00 | 85 | 1018.9 |
| 20260510043516 | 8 | 347 | 4.8 | 17.7 | 0.00 | 0.00 | 0.00 | 85 | 1018.8 |
| 20260510043032 | 8 | 344 | 6.4 | 17.7 | 0.00 | 0.00 | 0.00 | 85 | 1018.9 |
| 20260510042517 | 8 | 351 | 6.4 | 11.3 | 0.00 | 0.00 | 0.00 | 84 | 1018.8 |
| 20260510042015 | 8 | 340 | 4.8 | 11.3 | 0.00 | 0.00 | 0.00 | 84 | 1018.9 |
| 20260510041537 | 8 | 8 | 6.4 | 12.9 | 0.00 | 0.00 | 0.00 | 83 | 1018.9 |
| 20260510041020 | 8 | 329 | 4.8 | 14.5 | 0.00 | 0.00 | 0.00 | 83 | 1018.9 |
| 20260510040515 | 8 | 359 | 6.4 | 14.5 | 0.00 | 0.00 | 0.00 | 83 | 1019.0 |
| 20260510040032 | 8 | 328 | 3.2 | 9.7 | 0.00 | 0.00 | 0.00 | 82 | 1019.0 |
| 20260510035515 | 9 | 330 | 4.8 | 11.3 | 0.00 | 0.00 | 0.00 | 82 | 1018.9 |
| 20260510035017 | 9 | 330 | 3.2 | 11.3 | 0.00 | 0.00 | 0.00 | 82 | 1019.0 |
| 20260510034536 | 9 | 14 | 3.2 | 14.5 | 0.00 | 0.00 | 0.00 | 81 | 1018.8 |
| 20260510034019 | 9 | 358 | 4.8 | 17.7 | 0.00 | 0.00 | 0.00 | 81 | 1018.9 |
| 20260510033517 | 10 | 8 | 6.4 | 17.7 | 0.00 | 0.00 | 0.00 | 81 | 1018.9 |
| 20260510033037 | 10 | 356 | 4.8 | 16.1 | 0.00 | 0.00 | 0.00 | 81 | 1018.9 |
| 20260510032520 | 10 | 330 | 3.2 | 16.1 | 0.00 | 0.00 | 0.00 | 81 | 1019.0 |
| 20260510032019 | 10 | 329 | 3.2 | 16.1 | 0.00 | 0.00 | 0.00 | 81 | 1019.1 |
| 20260510031542 | 10 | 302 | 6.4 | 14.5 | 0.00 | 0.00 | 0.00 | 80 | 1019.0 |
| 20260510031017 | 10 | 330 | 6.4 | 19.3 | 0.00 | 0.00 | 0.00 | 80 | 1019.0 |
| 20260510030515 | 10 | 322 | 6.4 | 19.3 | 0.00 | 0.00 | 0.00 | 80 | 1019.1 |
| 20260510030118 | 10 | 336 | 8.0 | 19.3 | 0.00 | 0.00 | 0.00 | 80 | 1019.0 |
| 20260510025515 | 10 | 319 | 4.8 | 20.9 | 0.00 | 0.00 | 0.00 | 80 | 1019.1 |
| 20260510025015 | 10 | 6 | 6.4 | 20.9 | 0.00 | 0.00 | 0.00 | 80 | 1019.0 |
| 20260510024535 | 10 | 9 | 6.4 | 14.5 | 0.00 | 0.00 | 0.00 | 80 | 1019.1 |
| 20260510024015 | 10 | 25 | 6.4 | 17.7 | 0.00 | 0.00 | 0.00 | 80 | 1019.1 |
| 20260510023520 | 10 | 23 | 6.4 | 17.7 | 0.00 | 0.00 | 0.00 | 80 | 1019.1 |
| 20260510023036 | 10 | 19 | 8.0 | 19.3 | 0.00 | 0.00 | 0.00 | 80 | 1019.1 |
| 20260510022515 | 10 | 14 | 8.0 | 19.3 | 0.00 | 0.00 | 0.00 | 80 | 1019.2 |
| 20260510022017 | 10 | 336 | 6.4 | 17.7 | 0.00 | 0.00 | 0.00 | 80 | 1019.1 |
| 20260510021537 | 10 | 326 | 6.4 | 17.7 | 0.00 | 0.00 | 0.00 | 80 | 1019.1 |
| 20260510021017 | 11 | 341 | 6.4 | 16.1 | 0.00 | 0.00 | 0.00 | 80 | 1019.0 |
| 20260510020518 | 11 | 322 | 4.8 | 16.1 | 0.00 | 0.00 | 0.00 | 80 | 1019.0 |
| 20260510020032 | 11 | 316 | 6.4 | 16.1 | 0.00 | 0.00 | 0.00 | 80 | 1019.0 |
| 20260510015520 | 11 | 13 | 4.8 | 14.5 | 0.00 | 0.00 | 0.00 | 80 | 1019.0 |
| 20260510015016 | 11 | 352 | 6.4 | 16.1 | 0.00 | 0.00 | 0.00 | 80 | 1019.0 |
| 20260510014535 | 11 | 349 | 6.4 | 16.1 | 0.00 | 0.00 | 0.00 | 80 | 1019.1 |
| 20260510014016 | 11 | 359 | 4.8 | 14.5 | 0.00 | 0.00 | 0.00 | 80 | 1019.0 |
| 20260510013516 | 11 | 345 | 4.8 | 12.9 | 0.00 | 0.00 | 0.00 | 81 | 1019.1 |
| 20260510013035 | 11 | 338 | 3.2 | 11.3 | 0.00 | 0.00 | 0.00 | 81 | 1019.0 |
| 20260510012515 | 11 | 332 | 1.6 | 11.3 | 0.00 | 0.00 | 0.00 | 81 | 1019.1 |
| 20260510012015 | 11 | 0 | 3.2 | 14.5 | 0.00 | 0.00 | 0.00 | 81 | 1019.1 |
| 20260510011534 | 11 | 322 | 3.2 | 14.5 | 0.00 | 0.00 | 0.00 | 81 | 1019.1 |
| 20260510011015 | 11 | 336 | 3.2 | 12.9 | 0.00 | 0.00 | 0.00 | 82 | 1018.9 |
| 20260510010515 | 11 | 43 | 3.2 | 12.9 | 0.00 | 0.00 | 0.00 | 82 | 1018.9 |
| 20260510010033 | 11 | 28 | 3.2 | 11.3 | 0.00 | 0.00 | 0.00 | 82 | 1018.9 |
| 20260510005516 | 11 | 323 | 3.2 | 12.9 | 0.00 | 0.00 | 0.00 | 82 | 1018.9 |
| 20260510005018 | 11 | 6 | 1.6 | 12.9 | 0.00 | 0.00 | 0.00 | 82 | 1018.9 |
| 20260510004532 | 11 | 319 | 3.2 | 12.9 | 0.00 | 0.00 | 0.00 | 82 | 1018.8 |
| 20260510004015 | 11 | 348 | 6.4 | 14.5 | 0.00 | 0.00 | 0.00 | 82 | 1018.8 |
| 20260510003515 | 11 | 8 | 4.8 | 14.5 | 0.00 | 0.00 | 0.00 | 82 | 1018.8 |
| 20260510003036 | 11 | 318 | 4.8 | 12.9 | 0.00 | 0.00 | 0.00 | 82 | 1019.0 |
| 20260510002514 | 11 | 328 | 3.2 | 11.3 | 0.00 | 0.00 | 0.00 | 83 | 1019.1 |
| 20260510002019 | 11 | 327 | 1.6 | 14.5 | 0.00 | 0.00 | 0.00 | 83 | 1019.1 |
| 20260510001532 | 11 | 320 | 1.6 | 14.5 | 0.00 | 0.00 | 0.00 | 83 | 1019.2 |
| 20260510001016 | 12 | 333 | 3.2 | 14.5 | 0.00 | 0.00 | 0.00 | 83 | 1019.1 |
| 20260510000519 | 12 | 353 | 4.8 | 12.9 | 0.00 | 0.00 | 0.00 | 83 | 1019.1 |
| 20260510000035 | 12 | 344 | 6.4 | 17.7 | 0.00 | 0.00 | 0.00 | 83 | 1018.9 |
| 20260509235515 | 12 | 11 | 6.4 | 17.7 | 0.00 | 0.00 | 0.00 | 83 | 1018.9 |
| 20260509235016 | 12 | 351 | 8.0 | 17.7 | 0.00 | 0.00 | 0.00 | 83 | 1018.9 |
| 20260509234538 | 12 | 24 | 4.8 | 14.5 | 0.00 | 0.00 | 0.00 | 83 | 1018.9 |
| 20260509234018 | 12 | 335 | 8.0 | 16.1 | 0.00 | 0.00 | 0.00 | 83 | 1018.8 |
| 20260509233514 | 12 | 355 | 8.0 | 16.1 | 0.00 | 0.00 | 0.00 | 83 | 1018.8 |
| 20260509233036 | 12 | 344 | 8.0 | 19.3 | 0.00 | 0.00 | 0.00 | 83 | 1018.8 |
| 20260509232515 | 12 | 8 | 9.7 | 19.3 | 0.00 | 0.00 | 0.00 | 83 | 1018.7 |
| 20260509232015 | 12 | 19 | 8.0 | 19.3 | 0.00 | 0.00 | 0.00 | 83 | 1018.8 |
| 20260509231536 | 12 | 350 | 8.0 | 19.3 | 0.00 | 0.00 | 0.00 | 83 | 1018.7 |
| 20260509231018 | 12 | 321 | 8.0 | 17.7 | 0.00 | 0.00 | 0.00 | 83 | 1018.8 |
| 20260509230516 | 12 | 2 | 8.0 | 16.1 | 0.00 | 0.00 | 0.00 | 83 | 1018.7 |
| 20260509230039 | 12 | 321 | 8.0 | 17.7 | 0.00 | 0.00 | 0.00 | 83 | 1018.8 |
| 20260509225515 | 12 | 344 | 8.0 | 17.7 | 0.00 | 0.00 | 0.00 | 83 | 1018.8 |
| 20260509225017 | 11 | 358 | 8.0 | 17.7 | 0.00 | 0.00 | 0.00 | 83 | 1018.7 |
| 20260509224534 | 12 | 335 | 9.7 | 17.7 | 0.00 | 0.00 | 0.00 | 83 | 1018.7 |
| 20260509224016 | 11 | 4 | 9.7 | 17.7 | 0.00 | 0.00 | 0.00 | 84 | 1018.7 |
| 20260509223519 | 11 | 340 | 9.7 | 19.3 | 0.00 | 0.00 | 0.00 | 84 | 1018.7 |
| 20260509223034 | 11 | 358 | 9.7 | 20.9 | 0.00 | 0.00 | 0.00 | 84 | 1018.7 |
| 20260509222515 | 11 | 4 | 9.7 | 20.9 | 0.00 | 0.00 | 0.00 | 84 | 1018.7 |
| 20260509222015 | 11 | 354 | 11.3 | 20.9 | 0.00 | 0.00 | 0.00 | 84 | 1018.8 |
| 20260509221534 | 12 | 347 | 11.3 | 22.5 | 0.00 | 0.00 | 0.00 | 83 | 1018.8 |
| 20260509221016 | 12 | 11 | 9.7 | 22.5 | 0.00 | 0.00 | 0.00 | 83 | 1018.9 |
| 20260509220515 | 12 | 5 | 11.3 | 19.3 | 0.00 | 0.00 | 0.00 | 83 | 1018.8 |
| 20260509220039 | 12 | 39 | 11.3 | 20.9 | 0.00 | 0.00 | 0.00 | 83 | 1018.8 |
| 20260509215518 | 12 | 15 | 11.3 | 22.5 | 0.00 | 0.00 | 0.00 | 83 | 1018.7 |
| 20260509215014 | 12 | 11 | 11.3 | 22.5 | 0.00 | 0.00 | 0.00 | 83 | 1018.8 |
| 20260509214534 | 12 | 17 | 9.7 | 24.1 | 0.00 | 0.00 | 0.00 | 83 | 1018.8 |
| 20260509214019 | 12 | 27 | 11.3 | 24.1 | 0.00 | 0.00 | 0.00 | 83 | 1018.8 |
| 20260509213515 | 11 | 32 | 11.3 | 22.5 | 0.00 | 0.00 | 0.00 | 84 | 1018.8 |
| 20260509213036 | 11 | 337 | 8.0 | 22.5 | 0.00 | 0.00 | 0.00 | 83 | 1018.9 |
| 20260509212516 | 12 | 34 | 11.3 | 20.9 | 0.00 | 0.00 | 0.00 | 83 | 1018.9 |
| 20260509212015 | 12 | 8 | 11.3 | 20.9 | 0.00 | 0.00 | 0.00 | 83 | 1018.9 |
| 20260509211537 | 11 | 343 | 9.7 | 19.3 | 0.00 | 0.00 | 0.00 | 84 | 1018.9 |
| 20260509211015 | 11 | 23 | 8.0 | 17.7 | 0.00 | 0.00 | 0.00 | 84 | 1018.8 |
| 20260509210516 | 11 | 7 | 8.0 | 16.1 | 0.00 | 0.00 | 0.00 | 84 | 1018.7 |
| 20260509210038 | 11 | 28 | 9.7 | 19.3 | 0.00 | 0.00 | 0.00 | 84 | 1018.8 |
| 20260509205515 | 11 | 343 | 9.7 | 19.3 | 0.00 | 0.00 | 0.00 | 83 | 1018.8 |
| 20260509205015 | 11 | 17 | 11.3 | 20.9 | 0.00 | 0.00 | 0.00 | 84 | 1018.8 |
| 20260509204533 | 11 | 19 | 11.3 | 20.9 | 0.00 | 0.00 | 0.00 | 84 | 1018.8 |
| 20260509204015 | 11 | 6 | 9.7 | 17.7 | 0.00 | 0.00 | 0.00 | 84 | 1018.8 |
| 20260509203517 | 11 | 347 | 8.0 | 17.7 | 0.00 | 0.00 | 0.00 | 84 | 1018.8 |
| 20260509203033 | 11 | 351 | 9.7 | 22.5 | 0.00 | 0.00 | 0.00 | 84 | 1018.8 |
| 20260509202517 | 12 | 330 | 8.0 | 22.5 | 0.00 | 0.00 | 0.00 | 85 | 1018.8 |